Weather History for KIMT - December, 2014

Change the Weather History Date:

Wednesday, December 10, 2014

  Actual Average Record
Temperature  
Mean Temperature 18 °F -  
Max Temperature 27 °F 29 °F 55 °F (1990)
Min Temperature 8 °F 12 °F -13 °F (1958)
Degree Days  
Heating Degree Days 46    
Moisture  
Dew Point 17 °F    
Average Humidity 84    
Maximum Humidity 93    
Minimum Humidity 66    
Precipitation  
Precipitation 0.00 in - - ()
Sea Level Pressure  
Sea Level Pressure 30.40 in    
Wind  
Wind Speed 1 mph (NNW)    
Max Wind Speed 5 mph    
Max Gust Speed -    
Visibility 8 miles    
Events Fog , Snow    
Averages and records for this station are not official NWS values.
T = Trace of Precipitation, MM = Missing Value Source: NWS Daily Summary

Daily Weather History Graph

Daily Weather History Graph

Search for Another Location

Airport or City:

Trip Planner

Search our weather history database for the weather conditions in past years. The results will help you decide how hot, cold, wet, or windy it might be!

Date:

Astronomy

Dec. 10, 2014 Rise Set
Actual Time 7:22 AM CST 4:07 PM CST
Civil Twilight 6:48 AM CST 4:42 PM CST
Nautical Twilight 6:10 AM CST 5:19 PM CST
Astronomical Twilight 5:34 AM CST 5:55 PM CST
Moon 8:31 PM CST (12/10) 10:04 AM CST (12/10)
Length of Visible Light 9h 53m
Length of Day
8h 45m
Waning Gibbous, 83% of the Moon is Illuminated
Dec 10
Waning Gibbous
Dec 14
Last Quarter
Dec 21
New
Dec 28
First Quarter
Jan 4
Full

Hourly Weather History & Observations

Time (CST) Temp. Windchill Dew Point Humidity Pressure Visibility Wind Dir Wind Speed Gust Speed Precip Events Conditions
12:54 AM 21.9 °F 17.2 °F 18.0 °F 85% 30.47 in 10.0 mi NW 3.5 mph - N/A   Overcast
1:54 AM 23.0 °F - 18.0 °F 81% 30.47 in 10.0 mi Calm Calm - N/A   Overcast
2:54 AM 23.0 °F - 18.0 °F 81% 30.46 in 10.0 mi Calm Calm - N/A   Overcast
3:54 AM 23.0 °F 17.0 °F 18.0 °F 81% 30.45 in 10.0 mi NW 4.6 mph - N/A   Overcast
4:54 AM 21.9 °F 17.2 °F 18.0 °F 85% 30.46 in 10.0 mi NNW 3.5 mph - N/A   Overcast
5:54 AM 21.9 °F 15.7 °F 18.0 °F 85% 30.46 in 10.0 mi NE 4.6 mph - N/A   Overcast
6:54 AM 23.0 °F 18.4 °F 18.0 °F 81% 30.47 in 10.0 mi NNE 3.5 mph - N/A   Overcast
7:24 AM 21.9 °F - 18.0 °F 85% 30.40 in 3.0 mi Calm Calm - N/A   Overcast
7:38 AM 21.0 °F - 18.0 °F 88% 30.40 in 1.8 mi Calm Calm - N/A   Overcast
7:54 AM 21.9 °F - 19.0 °F 89% 30.47 in 0.5 mi Calm Calm - 0.00 in Fog , Snow Light Snow
8:09 AM 21.0 °F - 18.0 °F 88% 30.40 in 1.0 mi Calm Calm - 0.00 in   Overcast
8:18 AM 21.0 °F 16.2 °F 19.0 °F 92% 30.40 in 0.5 mi North 3.5 mph - 0.00 in Fog , Snow Light Snow
8:32 AM 21.0 °F - 19.0 °F 92% 30.40 in 0.5 mi Calm Calm - 0.00 in Fog , Snow Light Snow
8:41 AM 21.0 °F - 19.0 °F 92% 30.39 in 1.0 mi Calm Calm - 0.00 in   Overcast
8:48 AM 21.2 °F - 19.4 °F 93% 30.39 in 2.0 mi Calm Calm - 0.00 in   Overcast
8:54 AM 21.9 °F - 19.0 °F 89% 30.46 in 5.0 mi Calm Calm - 0.00 in   Overcast
9:11 AM 21.0 °F - 19.0 °F 92% 30.40 in 10.0 mi Calm Calm - N/A   Overcast
9:54 AM 21.9 °F 15.7 °F 18.0 °F 85% 30.47 in 10.0 mi NW 4.6 mph - N/A   Overcast
10:44 AM 24.1 °F - 19.0 °F 81% 30.38 in 10.0 mi Calm Calm - N/A   Mostly Cloudy
10:54 AM 23.0 °F - 18.0 °F 81% 30.44 in 10.0 mi Calm Calm - N/A   Overcast
11:24 AM 23.0 °F - 19.0 °F 85% 30.37 in 10.0 mi Calm Calm - N/A   Scattered Clouds
11:54 AM 24.1 °F - 19.0 °F 81% 30.43 in 10.0 mi Calm Calm - N/A   Clear
12:54 PM 26.1 °F - 18.0 °F 71% 30.39 in 10.0 mi Calm Calm - N/A   Clear
1:54 PM 27.0 °F - 18.0 °F 69% 30.37 in 10.0 mi Calm Calm - N/A   Clear
2:54 PM 27.0 °F - 17.1 °F 66% 30.36 in 10.0 mi Calm Calm - N/A   Clear
3:54 PM 24.1 °F - 17.1 °F 75% 30.35 in 10.0 mi Calm Calm - N/A   Clear
4:54 PM 21.0 °F - 16.0 °F 81% 30.36 in 10.0 mi Calm Calm - N/A   Clear
5:54 PM 23.0 °F - 17.1 °F 78% 30.36 in 10.0 mi Calm Calm - N/A   Clear
6:54 PM 21.0 °F - 16.0 °F 81% 30.36 in 10.0 mi Calm Calm - N/A   Clear
7:54 PM 18.0 °F - 16.0 °F 92% 30.33 in 10.0 mi Calm Calm - N/A   Clear
8:54 PM 12.9 °F - 10.0 °F 88% 30.32 in 9.0 mi Calm Calm - N/A   Clear
9:54 PM 10.9 °F - 9.0 °F 92% 30.32 in 6.0 mi Calm Calm - N/A   Clear
10:54 PM 10.9 °F - 9.0 °F 92% 30.30 in 8.0 mi Calm Calm - N/A   Clear
11:54 PM 8.1 °F 1.4 °F 5.0 °F 87% 30.28 in 8.0 mi NW 3.5 mph - N/A   Clear